Home > Time Zones > World Clock > Weather > Iran > Tehran > Past weeks

Flag for Iran Weather past 2 weeks in Tehran, Iran

Now
52 °F

Clear.


Feels Like: 51 °F
Forecast: 45 / 69 °F
Wind: 5 mph from Northwest

Location: Tehran-Mehrabad

Current Time: Mar 28, 2015 at 2:29:43 AM

Latest Report: Mar 28, 2015 at 1:30 AM


Visibility: 10 mi

Pressure: 30.15 "Hg

Humidity: 50%

Dew point: 34 °F

Location of TehranLocation

Historic Weather in Tehran — Graph

°F

Tehran temperature yesterday

Maximum temperature yesterday: 61 °F (at 4:30 PM)
Minimum temperature yesterday: 43 °F (at 4:00 AM)
Average temperature yesterday: 52 °F

Past Weeks' High & Low Weather Summary

 TemperatureHumidityPressure
High68 °F (Mar 21, 2:30 PM)94% (Mar 20, 11:00 AM)30.24 "Hg (Mar 20, 11:00 AM)
Low41 °F (Mar 24, 12:00 AM)14% (Mar 13, 4:30 PM)29.77 "Hg (Mar 22, 8:00 PM)
Average55 °F43%30.06 "Hg
* Reported Mar 12 11:30 PM — Mar 28 1:00 AM, Tehran, Weather by CustomWeather, © 2015

Note: Actual official high and low records may vary slightly from our data, if they occured in-between our weather recording intervals... More about our weather records

Advertising

Tehran weather history for previous 24 hours

 ConditionsComfort  
Time TempWeatherWind HumidityBarometerVisibility
1:00 AM
Sat, Mar 28
54 °FClear.No wind47%30.15 "Hg10 mi
12:30 AM55 °FClear.5 mph44%30.15 "Hg10 mi
12:00 AM55 °FClear.5 mph47%30.15 "Hg10 mi
11:30 PM
Fri, Mar 27
55 °FClear.5 mph44%30.15 "Hg10 mi
11:00 PM55 °FClear.9 mph44%30.15 "Hg10 mi
10:30 PM54 °FClear.7 mph51%30.15 "Hg10 mi
10:00 PM55 °FClear.5 mph44%30.15 "Hg10 mi
9:30 PM55 °FClear.5 mph44%30.15 "Hg10 mi
9:00 PM57 °FClear.9 mph41%30.15 "Hg10 mi
8:30 PM57 °FSunny.12 mph41%30.12 "Hg10 mi
8:00 PM59 °FPassing clouds.9 mph36%30.12 "HgN/A
7:30 PM59 °FPassing clouds.12 mph36%30.12 "HgN/A
7:00 PM61 °FPassing clouds.12 mph31%30.12 "HgN/A
6:20 PM61 °FPassing clouds.12 mph31%30.12 "HgN/A
6:00 PM61 °FPassing clouds.12 mph31%30.12 "HgN/A
5:30 PM61 °FPassing clouds.12 mph31%30.12 "HgN/A
4:30 PM61 °FPassing clouds.7 mph34%30.12 "HgN/A
4:00 PM59 °FPassing clouds.7 mph36%30.15 "HgN/A
3:30 PM59 °FPassing clouds.7 mph36%30.15 "HgN/A
3:00 PM59 °FScattered clouds.12 mph42%30.15 "HgN/A
2:30 PM59 °FScattered clouds.12 mph42%30.15 "HgN/A
2:00 PM55 °FScattered clouds.7 mph47%30.18 "HgN/A
1:30 PM55 °FScattered clouds.7 mph47%30.18 "HgN/A
1:00 PM55 °FScattered clouds.7 mph47%30.18 "HgN/A
12:30 PM55 °FScattered clouds.7 mph47%30.18 "HgN/A
11:50 AM54 °FPassing clouds.5 mph54%30.18 "Hg4 mi
11:30 AM54 °FPassing clouds.5 mph54%30.18 "Hg4 mi
11:00 AM54 °FPassing clouds.5 mph54%30.18 "Hg4 mi
10:20 AM48 °FScattered clouds.5 mph66%30.18 "Hg4 mi
9:50 AM48 °FScattered clouds.5 mph66%30.18 "Hg4 mi
9:30 AM48 °FScattered clouds.5 mph66%30.18 "Hg4 mi
9:00 AM46 °FScattered clouds.7 mph71%30.18 "Hg4 mi
8:30 AM46 °FScattered clouds.7 mph71%30.18 "Hg4 mi
7:30 AM43 °FPassing clouds.7 mph76%30.18 "Hg4 mi
7:00 AM43 °FPartly cloudy.9 mph76%30.15 "HgN/A
6:30 AM45 °FPartly cloudy.7 mph71%30.15 "HgN/A
6:00 AM45 °FPartly cloudy.7 mph76%30.15 "HgN/A
5:30 AM43 °FPartly cloudy.9 mph76%30.15 "HgN/A
5:00 AM43 °FPartly cloudy.9 mph76%30.12 "HgN/A
4:30 AM43 °FPartly cloudy.9 mph76%30.12 "HgN/A
4:00 AM43 °FPartly cloudy.12 mph76%30.12 "HgN/A
3:30 AM45 °FPartly cloudy.9 mph71%30.12 "HgN/A
3:00 AM45 °FPartly cloudy.9 mph71%30.12 "HgN/A
2:30 AM45 °FPartly cloudy.9 mph71%30.12 "HgN/A
2:00 AM45 °FPartly cloudy.9 mph71%30.12 "HgN/A
Weather by CustomWeather, © 2015

See weather overviewHow to use our weather pages